Tracking 19564 objects as of 19-Mar-2019
HD Live streaming from Space Station
objects crossing your sky now

FENGYUN 1C DEB

Track FENGYUN 1C DEB now!
10-day predictions


NORAD ID: 32098
Int'l Code: 1999-025CQQ
Perigee: 697.5 km
Apogee: 994.2 km
Inclination: 98.7 °
Period: 101.7 minutes
Semi major axis: 7216 km
RCS: 0.0108 m2 (small)
Launch date: May 10, 1999
Source: People's Republic of China (PRC)
Launch site: Taiyaun Space Center, China (TSC)

Note: This is SATELLITE DEBRIS
aabbcc
Your satellite tracking list
Your tracking list is empty




NASA's NSSDC Master Catalog

Two Line Element Set (TLE):
1 32098U 99025CQQ 19077.32770895  .00000108  00000-0  63434-4 0  9995
2 32098  98.6943 111.2469 0205523   4.5001 355.7960 14.16054817600462
Source of the keplerian elements: AFSPC